Regional Weather Roundup
Issued by NWS Upton, NY

Current Version | Previous Version | Text Only | Print | Product List | Glossary On
Versions: 1 2 3 4 5 6 7 8 9 10 11 12 13 14 15 16 17 18 19 20 21 22 23 24 25 26 27 28 29 30 31 32 33 34 35 36 37 38 39 40 41 42 43 44 45 46 47 48 49 50
417
ASUS41 KOKX 151708
RWROKX

REGIONAL WEATHER ROUNDUP
NATIONAL WEATHER SERVICE NEW YORK NY
1200 PM EST SUN JAN 15 2017

NOTE: "FAIR" INDICATES FEW OR NO CLOUDS BELOW 12,000 FEET WITH NO
SIGNIFICANT WEATHER AND/OR OBSTRUCTIONS TO VISIBILITY.

NYZ071-072-176-178-NJZ106-104-151800-
NEW YORK CITY METRO AREA

CITY           SKY/WX    TMP DP  RH WIND       PRES   REMARKS
Central Park   SUNNY     36  21  54 MISG      30.37F
Wall St Helipt SUNNY     39  23  52 VRB7      30.36F WCI  34
Bronx Bot Gard NOT AVBL
LaGuardia APRT MOSUNNY   37  21  52 NW7       30.35F WCI  32
Kennedy INTL   MOSUNNY   37  20  50 N12       30.36F WCI  29
Breezy Point     N/A     34 N/A N/A NW10G16     N/A  WCI  26
Newark/Liberty MOSUNNY   37  22  54 NW14G22   30.36F WCI  28
Teterboro      SUNNY     37  21  52 N12       30.35F WCI  29
$$

NYZ177-179-078>081-151800-
LONG ISLAND NEW YORK

CITY           SKY/WX    TMP DP  RH WIND       PRES   REMARKS
Jones Beach      N/A     34 N/A N/A N12         N/A  WCI  25
Matinecock PT    N/A     36 N/A N/A NW6G12      N/A  WCI  31
Farmingdale    SUNNY     35  22  58 NW14      30.34F WCI  26
MacArthur/ISP  MOSUNNY   34  23  64 NW16G23   30.32F WCI  24
Shirley        SUNNY     35  23  61 N13G22    30.33F WCI  26
Westhampton    SUNNY     34  22  61 NW16G22   30.33F WCI  24
Southampton    NOT AVBL
Bridgehampton  NOT AVBL
East Hampton     N/A     33  20  56 N10       30.31S WCI  25
Montauk          N/A     36  20  52 NW10      30.31F WCI  28
$$

NYZ052-065-067-151800-
HUDSON VALLEY

CITY           SKY/WX    TMP DP  RH WIND       PRES   REMARKS
White Plains   MOSUNNY   35  21  56 NW12      30.32F WCI  27
Newburgh       SUNNY     34  23  64 VRB6      30.34F WCI  29
Montgomery     SUNNY     37  21  52 NW8       30.31F WCI  31
Poughkeepsie   SUNNY     35  20  54 N6        30.33F WCI  30
Albany         MOSUNNY   34  16  47 W13       30.34F WCI  25
$$

NJZ001-105-106-008-010-013-015-019>022-104-151800-
NEW JERSEY

CITY           SKY/WX    TMP DP  RH WIND       PRES   REMARKS
Newark/Liberty MOSUNNY   37  22  54 NW14G22   30.36F WCI  28
Teterboro      SUNNY     37  21  52 N12       30.35F WCI  29
Caldwell       SUNNY     36  20  52 VRB7      30.36F WCI  30
Somerville     SUNNY     35  21  56 NW10G21   30.35F WCI  27
Linden           N/A     35  21  55 NW9G16    30.37F WCI  28
Sussex         PTSUNNY   33  21  61 VRB5      30.34F WCI  29
Andover          N/A     33  20  58 N6        30.35F WCI  28
Trenton        SUNNY     36  23  59 NW9       30.37F WCI  29
Millville      SUNNY     40  28  62 NW8       30.38F WCI  34
Atlantic City  SUNNY     40  26  57 NW8       30.36F WCI  34
Wrightstown    SUNNY     37  22  56 NW10      30.34F WCI  29
Toms River     SUNNY     37  24  59 NW9       30.37F WCI  30
Belmar         SUNNY     37  22  54 NW14      30.36F WCI  28
$$

PAZ047>061-062-071-151800-
EASTERN PENNSYLVANIA

CITY           SKY/WX    TMP DP  RH WIND       PRES   REMARKS
Philadelphia   MOSUNNY   38  23  55 NW9       30.39F WCI  31
Allentown      SUNNY     34  19  54 NW8       30.38F WCI  27
Scranton       CLOUDY    29  20  69 NW5       30.36F WCI  24
$$

CTZ002-004>006-009-010-012-RIZ004-006-007-MAZ004-011-015-151800-
SOUTHERN NEW ENGLAND
 IN CT

CITY           SKY/WX    TMP DP  RH WIND       PRES   REMARKS
Bradley INTL   SUNNY     37  16  42 NW13      30.30F WCI  29
Hartford       SUNNY     37  17  44 N9        30.31F WCI  30
Danbury        SUNNY     34  20  56 NW8       30.32F WCI  27
Wtrbury/Oxford SUNNY     34  18  51 N13G21    30.30F WCI  25
Bridgeport     SUNNY     38  20  48 N9        30.33F WCI  31
Meriden        SUNNY     38  18  44 NW13G18   30.31F WCI  30
New Haven      MOSUNNY   36  18  48 NW10      30.32F WCI  28
Chester          N/A     34  18  51 NW12G17   30.29F WCI  25
Groton         SUNNY     36  20  52 N10       30.30F WCI  28
Wilimantic     SUNNY     37  17  44 NW9G17    30.30F WCI  30

 IN RI

CITY           SKY/WX    TMP DP  RH WIND       PRES   REMARKS
Providence     SUNNY     36  16  44 NW10      30.29F WCI  28
Block Island   NOT AVBL
Westerly       SUNNY     37  17  44 NW9       30.30F WCI  30
 IN MA

CITY           SKY/WX    TMP DP  RH WIND       PRES   REMARKS
Boston         SUNNY     34  16  47 N10       30.29F WCI  26
Worcester      SUNNY     30  12  47 NW15      30.24F WCI  19
Westfield      SUNNY     36  16  44 NW13      30.29F WCI  27
Provincetown   SUNNY     35  19  52 N16G24    30.27F WCI  25
Nantucket      SUNNY     36  22  56 N17       30.26F WCI  26
$$

ANZ330-335-338-340-345-350-353-355-151800-
COASTAL MARINE OBSERVATIONS


STATION/POSITION TIME  SKY/WX   TEMP    WIND        PRES    VSBY  WAVE
                                AIR SEA DIR/SP/G                  HT/PER
                 (UTC)          (F)     (DEG/KT/KT) (MB)    (MI)  (FT/S)
NY HARB ENTRANCE 1550            35 44  320/ 12/ 14 1028.2          2/11
20 S FIRE ISLAND 1650            34 45  340/ 14/ 16 1027.2          3/ 3
GREAT SOUTH BAY  NOT AVBL
23 SSW MONTAUK P 1550            34 48  320/ 17/ 21 1027.1          4/ 4
15 E BARNEGAT LI 1630               45                N/A           3/11
HUDSON CANYON    1550            41 53              1026.7          4/ 5
KINGS POINT      1642            34 38              1027.7
EXECUTION ROCKS  1645            37     320/  8/ 12   N/A
CENTRAL LI SOUND 1615            34     330/ 10/ 16   N/A           1/ 3
EASTERN LI SOUND NOT AVBL
ROBBINS REEF     1642            34     320/ 11/ 15 1028.2
$$


>>>>>>>>>>>>>>>>>>>>>>>>>>>> KEY <<<<<<<<<<<<<<<<<<<<<<<<<<<
>                                                          <
>     SKY/WX - Sky Condition/Present Weather               <
>     TMP    - Temperature in Fahrenheit                   <
>     DP     - Dew Point in Fahrenheit                     <
>     RH     - Relative Humidity in Percent                <
>     WIND   - Direction (from) and Speed in MPH           <
>     PRES   - Mean Sea Level Pressure (inches of Hg)      <
>     WCI    - Wind Chill Index                            <
>     VSB    - VISIBILITY IN MILES                         <
>     HX     - HEAT INDEX                                  <
>     TC     - TEMPERATURE IN CELSIUS                      <
>     VRB    - VARIABLE WIND DIRECTION                     <
>                                                          <
>>>>>>>>>>>>>>>>>>>>>>>>>>>> KEY <<<<<<<<<<<<<<<<<<<<<<<<<<<




USA.gov is the U.S. government's official web portal to all federal, state and local government web resources and services.